Weather History for Nome, AK

Change the Weather History Date:

Wednesday, October 5, 2011

  Actual Average Record
Temperature  
Mean Temperature 35 °F 34 °F  
Max Temperature 40 °F 40 °F 52 °F (1938)
Min Temperature 30 °F 28 °F 8 °F (1919)
Degree Days  
Heating Degree Days 30 31  
Month to date heating degree days 164 151  
Since 1 July heating degree days 1771 1681  
Cooling Degree Days 0    
Month to date cooling degree days 0  
Year to date cooling degree days 0  
Moisture  
Dew Point 22 °F    
Average Humidity 0    
Maximum Humidity 0    
Minimum Humidity 0    
Precipitation  
Precipitation 0.00 in 0.06 in 1.50 in (1985)
Month to date precipitation T 0.32  
Year to date precipitation 14.24 13.22  
Snow  
Snow 0.00 in 0.10 in 4.60 in (1992)
Month to date snowfall T 0.4  
Since 1 July snowfall T 1.0  
Since 1 September snowfall 0.0 1.0  
Snow Depth 0.00 in    
Sea Level Pressure  
Sea Level Pressure 29.45 in    
Wind  
Wind Speed 7 mph (NNE)    
Max Wind Speed 10 mph    
Max Gust Speed 12 mph    
Visibility 10 miles    
Events      
T = Trace of Precipitation, MM = Missing Value Source: NWS Daily Summary

Daily Weather History Graph

Daily Weather History Graph

Search for Another Location

Airport:

Trip Planner

Search our weather history database for the weather conditions in past years. The results will help you decide how hot, cold, wet, or windy it might be!

Date:

Astronomy

Oct. 05, 2011 Rise Set
Actual Time 9:22 AM AKDT 8:15 PM AKDT
Civil Twilight 8:34 AM AKDT 9:04 PM AKDT
Nautical Twilight 7:38 AM AKDT 10:00 PM AKDT
Astronomical Twilight 6:37 AM AKDT 10:59 PM AKDT
Moon 6:53 PM AKDT (10/5) 1:10 AM AKDT (10/5)
Length of Visible Light 12h 29m
Length of Day
10h 53m
Waxing Gibbous, 67% of the Moon is Illuminated
Oct 5
Waxing Gibbous
Oct 11
Full
Oct 19
Last Quarter
Oct 26
New
Nov 2
First Quarter

Hourly Weather History & Observations

Time (AKDT) Temp. Windchill Dew Point Humidity Pressure Visibility Wind Dir Wind Speed Gust Speed Precip Events Conditions
1:53 AM 30.9 °F 24.3 °F 25.0 °F 79% 29.56 in 10.0 mi North 6.9 mph - 0.00 in   Mostly Cloudy
2:53 AM 34.0 °F 26.6 °F 24.1 °F 67% 29.55 in 10.0 mi NE 9.2 mph - N/A   Overcast
3:53 AM 34.0 °F 29.8 °F 24.1 °F 67% 29.53 in 10.0 mi NNE 4.6 mph - N/A   Overcast
4:53 AM 35.1 °F 28.6 °F 24.1 °F 64% 29.52 in 10.0 mi NNE 8.1 mph - N/A   Overcast
5:53 AM 34.0 °F 28.0 °F 24.1 °F 67% 29.51 in 10.0 mi NNW 6.9 mph - N/A   Overcast
6:53 AM 35.1 °F 29.3 °F 24.1 °F 64% 29.50 in 10.0 mi NE 6.9 mph - N/A   Mostly Cloudy
7:53 AM 34.0 °F 27.2 °F 24.1 °F 67% 29.49 in 10.0 mi North 8.1 mph - N/A   Mostly Cloudy
8:53 AM 34.0 °F 27.2 °F 23.0 °F 64% 29.48 in 10.0 mi NNE 8.1 mph - N/A   Mostly Cloudy
9:53 AM 35.1 °F 30.1 °F 23.0 °F 61% 29.48 in 10.0 mi NNE 5.8 mph - N/A   Overcast
10:53 AM 35.1 °F 31.0 °F 23.0 °F 61% 29.47 in 10.0 mi NNE 4.6 mph - N/A   Overcast
11:53 AM 36.0 °F 28.5 °F 21.9 °F 57% 29.46 in 10.0 mi NNE 10.4 mph - N/A   Overcast
12:53 PM 37.0 °F 29.3 °F 21.9 °F 54% 29.44 in 10.0 mi NNE 11.5 mph - N/A   Overcast
1:53 PM 37.9 °F 30.9 °F 21.9 °F 53% 29.43 in 10.0 mi NNE 10.4 mph - N/A   Overcast
2:53 PM 39.0 °F 32.3 °F 21.0 °F 49% 29.42 in 10.0 mi NNE 10.4 mph - N/A   Overcast
3:53 PM 39.0 °F 31.8 °F 19.9 °F 46% 29.41 in 10.0 mi NE 11.5 mph - N/A   Overcast
4:53 PM 39.9 °F 33.4 °F 19.9 °F 45% 29.40 in 10.0 mi NE 10.4 mph - N/A   Overcast
6:00 PM 39.2 °F 33.6 °F 19.4 °F 45% 29.39 in 10.0 mi NNE 8.1 mph - N/A   Mostly Cloudy
6:53 PM 39.9 °F 34.5 °F 19.9 °F 45% 29.38 in 10.0 mi NE 8.1 mph - N/A   Mostly Cloudy
7:53 PM 37.0 °F 32.4 °F 21.0 °F 52% 29.38 in 10.0 mi North 5.8 mph - N/A   Overcast
8:53 PM 32.0 °F 24.8 °F 21.9 °F 66% 29.38 in 10.0 mi NNW 8.1 mph - N/A   Mostly Cloudy
9:53 PM 30.0 °F 26.5 °F 21.0 °F 69% 29.38 in 10.0 mi NNW 3.5 mph - N/A   Scattered Clouds
10:58 PM 30.2 °F 23.4 °F 19.4 °F 64% 29.37 in 10.0 mi NNW 6.9 mph - N/A   Scattered Clouds
11:53 PM 30.0 °F 24.1 °F 19.9 °F 66% 29.38 in 10.0 mi North 5.8 mph - N/A   Scattered Clouds